Regional Weather Roundup
Issued by NWS

Home | Current Version | Previous Version | Graphics & Text | Print | Product List | Glossary Off
Versions: 1 2 3 4 5 6 7 8 9 10 11 12 13 14 15 16 17 18 19 20 21 22 23 24 25 26 27 28 29 30 31 32 33 34 35 36 37 38 39 40 41 42 43 44 45 46 47 48 49 50

851
ASUS43 KDMX 310003
RWRIA

WEATHER ROUNDUP FOR IOWA
NATIONAL WEATHER SERVICE DES MOINES IA
700 PM CDT TUE AUG 30 2016

NOTE: "FAIR" INDICATES FEW OR NO CLOUDS BELOW 12,000 FEET WITH NO
SIGNIFICANT WEATHER AND/OR OBSTRUCTIONS TO VISIBILITY.

* - THESE STATIONS ARE NOT NWS STATIONS...THUS NOT UNDER NWS
QUALITY CONTROL.  THEY ALSO DO NOT REPORT WEATHER SUCH
AS PRECIPITATION OR FOG.

IAZ001>003-012>014-020>022-031>034-043>046-310100-
   NORTHWEST IOWA

CITY           SKY/WX    TMP DP  RH WIND       PRES   REMARKS
CARROLL *      CLOUDY    77  70  78 NE9       30.14S
CHEROKEE *     PTCLDY    76  70  81 CALM      30.14F
DENISON *      CLOUDY    77  70  78 NE3       30.12F
LE MARS *      CLOUDY    79  70  73 NE8       30.15S HX  81
ORANGE CITY *  MOSUNNY   75  70  83 NE3       30.16S
SHELDON *      MOSUNNY   75  70  83 NE5       30.15F
SIOUX CITY     CLOUDY    82  68  62 NE8       30.13F HX  85
6HR MIN TEMP:  78; 6HR MAX TEMP:  85;

SPENCER        CLOUDY    74  66  76 N5        30.16F
6HR MIN TEMP:  74; 6HR MAX TEMP:  81;

STORM LAKE *   MOCLDY    75  70  83 NE6       30.16F
$$

IAZ055>058-069>071-079>083-090>094-310100-
   SOUTHWEST IOWA

CITY           SKY/WX    TMP DP  RH WIND       PRES   REMARKS
ATLANTIC *     CLOUDY    75  72  88 CALM      30.13F
AUDUBON *      CLOUDY    75  70  83 CALM      30.15F
CLARINDA *       N/A     77  72  83 MISG        N/A
COUNCIL BLFS * CLOUDY    75  70  83 N3        30.14F
CRESTON *      PTCLDY    75  70  83 N7        30.14F
HARLAN  *      CLOUDY    75  72  88 CALM      30.17F
LAMONI         CLOUDY    77  72  84 N7        30.11F
6HR MIN TEMP:  73; 6HR MAX TEMP:  81; 6HR PCP:  0.03;

RED OAK *      CLOUDY    77  72  83 NE5       30.14S
SHENANDOAH *   PTCLDY    75  70  83 NE7       30.14R
$$

IAZ047>049-059>061-072>074-084-310100-
   CENTRAL IOWA

CITY           SKY/WX    TMP DP  RH WIND       PRES   REMARKS
AMES           CLOUDY    76  70  82 NE5       30.11F
6HR MIN TEMP:  76; 6HR MAX TEMP:  79;

ANKENY *         N/A    N/A N/A N/A MISG        N/A
BOONE *        CLOUDY    75  70  83 N5        30.12S
CHARITON *       N/A     79  72  78 MISG      30.11S HX  82
DES MOINES     CLOUDY    79  69  71 N6        30.10F HX  81
6HR MIN TEMP:  79; 6HR MAX TEMP:  83; 6HR PCP: TRACE;

GRINNELL*      PTCLDY    77  70  79 N5        30.11S
KNOXVILLE *    CLOUDY    79  70  73 N5        30.09S HX  81
MARSHALLTOWN   PTCLDY    76  72  87 N6        30.10S
6HR MIN TEMP:  76; 6HR MAX TEMP:  80;

NEWTON *       PTCLDY    77  73  88 N8        30.10S
PERRY *          N/A     76  73  88 CALM      30.13S
$$

IAZ004>006-015-016-023>025-035-036-310100-
   NORTH CENTRAL IOWA

CITY           SKY/WX    TMP DP  RH WIND       PRES   REMARKS
ALGONA *       MOCLDY    75  66  73 N8        30.15F
ESTHERVILLE    CLOUDY    71  65  81 N5        30.16F
6HR MIN TEMP:  71; 6HR MAX TEMP:  77;

FORT DODGE *   PTCLDY    75  66  73 N5        30.15S
MASON CITY     PTCLDY    74  67  78 NW6       30.15S
6HR MIN TEMP:  74; 6HR MAX TEMP:  80;

FOREST CITY *    N/A     72  64  78 N6        30.14F
WEBSTER CITY * MOCLDY    75  70  83 N7        30.12S
IOWA FALLS *     N/A     76  68  75 NW6       30.14S
$$

IAZ007>011-017>019-026>030-037>042-050>054-066-310100-
   NORTHEAST IOWA

CITY           SKY/WX    TMP DP  RH WIND       PRES   REMARKS
CEDAR RAPIDS   PTCLDY    76  73  91 W6        30.08F
6HR MIN TEMP:  76; 6HR MAX TEMP:  84; 6HR PCP: TRACE;

CHARLES CITY * CLOUDY    77  66  69 N6        30.12F
CLINTON *      CLOUDY    76  70  82 NE5       30.07S
DECORAH *      CLOUDY    75  66  73 N7G15     30.10S
DUBUQUE        MOCLDY    76  71  85 NW7       30.09S
6HR MIN TEMP:  76; 6HR MAX TEMP:  84;

MONTICELLO *   PTCLDY    79  72  78 NW6       30.07F HX  82
OELWEIN *      CLOUDY    73  70  88 NW5       30.11S
WATERLOO       PTCLDY    76  68  76 NW3       30.08F
6HR MIN TEMP:  76; 6HR MAX TEMP:  80;

$$

IAZ064-065-067-068-078-310100-
   EAST CENTRAL IOWA

CITY           SKY/WX    TMP DP  RH WIND       PRES   REMARKS
DAVENPORT      MOCLDY    74  71  91 CALM      30.07F
6HR MIN TEMP:  71; 6HR MAX TEMP:  85; 6HR PCP:  0.53;

IOWA CITY      MOCLDY    80  70  71 N8        30.08F HX  83
6HR MIN TEMP:  79; 6HR MAX TEMP:  84;

MT. PLEASANT * CLEAR     81  73  77 NW3       30.08S HX  85
QUAD CITIES    LGT RAIN  74  66  76 N3        30.06S
6HR MIN TEMP:  74; 6HR MAX TEMP:  86; 6HR PCP: TRACE;

$$

IAZ062-063-075>077-085>089-095>099-310100-
   SOUTHEAST IOWA

CITY           SKY/WX    TMP DP  RH WIND       PRES   REMARKS
BURLINGTON     CLEAR     79  72  79 W3        30.07F HX  82
6HR MIN TEMP:  77; 6HR MAX TEMP:  82; 6HR PCP: TRACE;

FAIRFIELD *    MOCLDY    79  72  78 CALM      30.09S HX  82
FORT MADISON *   N/A     79  72  78 CALM      30.09S HX  82
KEOKUK *       MOCLDY    81  72  74 CALM      30.07S HX  84
OSKALOOSA *    RAIN      76  72  87 CALM      30.09F
CENTERVILLE *    N/A     77  72  83 CALM      30.12S
OTTUMWA        LGT RAIN  76  69  79 CALM      30.08F
6HR MIN TEMP:  74; 6HR MAX TEMP:  82; 6HR PCP: TRACE;

WASHINGTON *   PTCLDY    77  73  88 CALM      30.09S
$$

ABBREVIATIONS USED IN REMARKS
   TC - TEMPERATURES IN CELSIUS
  WCI - WIND CHILL INDEX
   HX - HEAT INDEX
  VSB - VISIBILITY
$$





USA.gov is the U.S. government's official web portal to all federal, state and local government web resources and services.